FW0047 Weather Reports


time (UTC)temp
C
wind
direction
speed
KPH
gust
KPH
rain 1hr
cm
rain 24hr
cm
rain mn
cm
humidity
%
barometer
mb
20260503181524 12 308 1.6 8.0 0.00 0.00 0.00 97 1009.9
20260503181024 12 309 3.2 8.0 0.00 0.00 0.00 96 1009.8
20260503180523 12 300 4.8 8.0 0.00 0.00 0.00 96 1009.8
20260503180023 12 301 0.0 4.8 0.00 0.00 0.00 97 1009.7
20260503175521 12 300 0.0 4.8 0.00 0.00 0.00 97 1009.7
20260503175022 12 300 0.0 3.2 0.00 0.00 0.00 97 1009.7
20260503174522 12 300 0.0 3.2 0.00 0.00 0.00 98 1009.7
20260503174020 12 300 0.0 6.4 0.00 0.00 0.00 98 1009.7
20260503173519 11 300 0.0 6.4 0.00 0.00 0.00 98 1009.8
20260503173027 11 301 1.6 8.0 0.00 0.00 0.00 97 1009.8
20260503172520 11 300 4.8 8.0 0.00 0.00 0.00 97 1009.8
20260503172019 11 294 3.2 8.0 0.00 0.00 0.00 97 1009.8
20260503171519 11 285 4.8 6.4 0.00 0.00 0.00 97 1009.8
20260503171021 11 279 1.6 6.4 0.00 0.00 0.00 98 1009.8
20260503170519 11 281 1.6 6.4 0.00 0.00 0.00 97 1009.7
20260503151012 10 360 1.6 6.4 0.00 0.00 0.00 97 1009.6
20260503150511 10 360 4.8 6.4 0.00 0.00 0.00 97 1009.6
20260503131004 8 331 0.0 1.6 0.00 0.00 0.00 97 1009.2
20260503130503 8 331 0.0 1.6 0.00 0.00 0.00 97 1009.3
20260503110553 8 130 0.0 3.2 0.00 0.00 0.00 96 1009.8
20260503110107 8 130 0.0 1.6 0.00 0.00 0.00 96 1009.9
20260503081531 9 334 0.0 1.6 0.00 0.00 0.00 96 1011.2
20260503081032 9 334 0.0 4.8 0.00 0.00 0.00 96 1011.2
20260503080530 9 334 1.6 4.8 0.00 0.00 0.00 96 1011.3
20260503072526 10 90 0.0 4.8 0.00 0.00 0.00 96 1011.5
20260503072025 10 90 1.6 6.4 0.00 0.00 0.00 96 1011.6
20260503071524 10 90 0.0 6.4 0.00 0.00 0.00 97 1011.6
20260503071025 10 89 4.8 6.4 0.00 0.00 0.00 96 1011.6
20260503070520 10 89 3.2 6.4 0.00 0.00 0.00 96 1011.6
20260503055016 10 5 3.2 8.0 0.00 0.00 0.00 96 1011.9
20260503054516 10 5 4.8 8.0 0.00 0.00 0.00 96 1011.9
20260503054016 10 32 3.2 6.4 0.00 0.00 0.00 96 1011.9
20260503053516 10 114 3.2 6.4 0.00 0.00 0.00 96 1011.9
20260503053020 10 113 1.6 6.4 0.00 0.00 0.00 96 1011.9
20260503052516 10 76 0.0 4.8 0.00 0.00 0.00 96 1011.8
20260503052021 10 76 0.0 6.4 0.00 0.00 0.00 96 1011.9
20260503051515 10 79 1.6 8.0 0.00 0.00 0.00 96 1011.9
20260503051015 10 338 1.6 8.0 0.00 0.00 0.00 96 1011.8
20260503050515 10 336 0.0 12.9 0.00 0.00 0.00 96 1011.8
20260503050023 10 336 0.0 14.5 0.00 0.00 0.00 96 1011.8
20260503045515 10 348 8.0 19.3 0.00 0.00 0.00 96 1011.8
20260503045018 10 355 12.9 19.3 0.00 0.00 0.00 96 1011.9
20260503044518 10 338 6.4 17.7 0.00 0.00 0.00 96 1011.8
20260503044014 10 330 11.3 17.7 0.00 0.00 0.00 96 1011.9
20260503043514 11 342 9.7 19.3 0.00 0.00 0.00 96 1011.9
20260503043014 11 360 11.3 22.5 0.00 0.00 0.00 96 1011.9
20260503042514 11 338 14.5 22.5 0.00 0.00 0.00 96 1011.9
20260503042014 11 336 14.5 24.1 0.00 0.00 0.00 96 1011.9
20260503041515 11 325 16.1 24.1 0.00 0.00 0.00 96 1011.9
20260503041014 11 335 19.3 27.4 0.00 0.00 0.00 96 1011.9
20260503040515 11 344 17.7 27.4 0.00 0.00 0.00 97 1011.9
20260503040013 11 350 17.7 25.7 0.00 0.00 0.00 97 1011.8
20260503035513 10 350 19.3 25.7 0.00 0.00 0.00 96 1011.8
20260503035013 10 338 16.1 25.7 0.00 0.00 0.00 96 1011.9
20260503034513 10 327 17.7 24.1 0.00 0.00 0.00 96 1011.8
20260503034013 10 346 17.7 27.4 0.00 0.00 0.00 96 1011.8
20260503033512 10 333 20.9 27.4 0.00 0.00 0.00 96 1011.8
20260503033012 10 333 20.9 27.4 0.00 0.00 0.00 96 1011.7
20260503032516 11 336 20.9 27.4 0.00 0.00 0.00 96 1011.7
20260503032012 10 339 20.9 25.7 0.00 0.00 0.00 96 1011.7
20260503031512 10 342 20.9 25.7 0.00 0.00 0.00 96 1011.7
20260503031013 11 323 19.3 24.1 0.00 0.00 0.00 95 1011.7
20260503030511 11 342 16.1 20.9 0.00 0.00 0.00 96 1011.7
20260503030011 11 327 16.1 20.9 0.00 0.00 0.00 95 1011.8
20260503025511 11 344 14.5 20.9 0.00 0.00 0.00 96 1011.8
20260503025011 11 338 14.5 22.5 0.00 0.00 0.00 96 1011.8
20260503024513 11 332 12.9 24.1 0.00 0.00 0.00 96 1011.8
20260503024011 11 329 17.7 27.4 0.00 0.00 0.00 96 1011.7
20260503023513 10 333 20.9 27.4 0.00 0.00 0.00 96 1011.7
20260503023010 11 329 22.5 29.0 0.00 0.00 0.00 96 1011.6
20260503022510 11 331 22.5 30.6 0.00 0.00 0.00 95 1011.4
20260503022009 11 349 19.3 30.6 0.00 0.00 0.00 96 1011.3
20260503021518 11 331 19.3 32.2 0.00 0.00 0.00 95 1011.3
20260503021008 11 340 24.1 32.2 0.00 0.00 0.00 95 1011.3
20260503020507 11 328 22.5 32.2 0.00 0.00 0.00 95 1011.4
20260503020006 11 333 24.1 35.4 0.00 0.00 0.00 95 1011.5
20260503015508 11 338 24.1 35.4 0.00 0.00 0.00 95 1011.5
20260503015006 11 339 27.4 35.4 0.00 0.00 0.00 95 1011.5
20260503014504 11 334 27.4 37.0 0.00 0.00 0.00 94 1011.5
20260503014005 11 340 27.4 37.0 0.00 0.00 0.00 94 1011.5
20260503013504 11 330 27.4 35.4 0.00 0.00 0.00 94 1011.6
20260503013003 11 330 22.5 38.6 0.00 0.00 0.00 94 1011.7
20260503012502 11 344 25.7 38.6 0.00 0.00 0.00 94 1011.7
20260503012002 11 337 25.7 33.8 0.00 0.00 0.00 94 1011.7
20260503011503 11 342 25.7 33.8 0.00 0.00 0.00 94 1011.9
20260503011002 11 341 22.5 29.0 0.00 0.00 0.00 94 1011.9
20260503010601 11 337 20.9 33.8 0.00 0.00 0.00 95 1011.9
20260503010100 11 329 24.1 33.8 0.00 0.00 0.00 94 1011.9
20260503005600 11 327 22.5 32.2 0.00 0.00 0.00 94 1011.8
20260503005059 11 341 24.1 30.6 0.00 0.00 0.00 94 1011.9
20260503004559 11 360 24.1 30.6 0.00 0.00 0.00 94 1012.0
20260503004059 11 339 22.5 27.4 0.00 0.00 0.00 95 1011.9
20260503003600 11 360 22.5 27.4 0.00 0.00 0.00 95 1011.8
20260503003056 11 321 20.9 27.4 0.00 0.00 0.00 95 1011.8
20260503002558 11 332 22.5 30.6 0.00 0.00 0.00 95 1011.8
20260503002056 11 332 24.1 30.6 0.00 0.00 0.00 94 1011.9
20260503001607 11 336 22.5 33.8 0.00 0.00 0.00 94 1011.9
20260503001055 11 329 24.1 33.8 0.00 0.00 0.00 94 1011.8
20260503000555 11 327 22.5 32.2 0.00 0.00 0.00 94 1011.9
20260503000054 11 355 24.1 35.4 0.00 0.00 0.00 95 1011.9
20260502235552 11 344 24.1 35.4 0.00 0.00 0.00 95 1012.0
20260502235052 11 338 25.7 33.8 0.00 0.00 0.00 95 1012.0
20260502234553 11 338 25.7 30.6 0.00 0.00 0.00 95 1012.1
20260502234052 11 329 24.1 30.6 0.00 0.00 0.00 95 1012.2
20260502233551 11 335 24.1 29.0 0.00 0.00 0.00 95 1012.2
20260502233052 11 330 24.1 32.2 0.00 0.00 0.00 95 1012.3
20260502232552 11 335 24.1 32.2 0.00 0.00 0.00 95 1012.3
20260502232049 11 336 24.1 30.6 0.00 0.00 0.00 95 1012.4
20260502231548 11 342 24.1 29.0 0.00 0.00 0.00 95 1012.5
20260502231048 11 338 20.9 30.6 0.00 0.00 0.00 95 1012.6
20260502230548 11 340 22.5 30.6 0.00 0.00 0.00 95 1012.6
20260502230047 11 333 22.5 27.4 0.00 0.00 0.00 95 1012.6
20260502225546 11 332 22.5 27.4 0.00 0.00 0.00 95 1012.7
20260502225045 11 330 22.5 27.4 0.00 0.00 0.00 95 1012.7
20260502224547 11 336 24.1 27.4 0.00 0.00 0.00 95 1012.8
20260502224044 11 336 20.9 25.7 0.00 0.00 0.00 95 1012.9
20260502223544 11 336 20.9 25.7 0.00 0.00 0.00 95 1012.9
20260502223044 11 336 22.5 25.7 0.00 0.00 0.00 95 1013.0
20260502222545 11 331 20.9 25.7 0.00 0.00 0.00 95 1013.1
20260502222042 11 331 20.9 25.7 0.00 0.00 0.00 95 1013.1
20260502221543 11 332 20.9 25.7 0.00 0.00 0.00 95 1013.1
20260502221045 11 325 20.9 24.1 0.00 0.00 0.00 95 1013.2
20260502220541 11 330 19.3 22.5 0.00 0.00 0.00 95 1013.3
20260502220041 11 326 19.3 22.5 0.00 0.00 0.00 95 1013.3
20260502215541 11 333 19.3 22.5 0.00 0.00 0.00 95 1013.3
20260502215042 11 325 16.1 20.9 0.00 0.00 0.00 95 1013.3
20260502214542 10 328 16.1 20.9 0.00 0.00 0.00 95 1013.3
20260502214040 10 327 16.1 19.3 0.00 0.00 0.00 95 1013.4
20260502213539 10 331 16.1 20.9 0.00 0.00 0.00 95 1013.3
20260502213039 10 333 16.1 20.9 0.00 0.00 0.00 95 1013.3
20260502212539 10 329 16.1 20.9 0.00 0.00 0.00 95 1013.4
20260502212038 10 324 14.5 17.7 0.00 0.00 0.00 95 1013.4
20260502211538 10 325 14.5 20.9 0.00 0.00 0.00 95 1013.5
20260502211040 10 327 14.5 20.9 0.00 0.00 0.00 95 1013.6
20260502210536 10 326 16.1 20.9 0.00 0.00 0.00 95 1013.7
20260502210035 10 328 16.1 20.9 0.00 0.00 0.00 95 1013.7
20260502205535 10 325 17.7 20.9 0.00 0.00 0.00 95 1013.7
20260502205036 10 325 17.7 19.3 0.00 0.00 0.00 94 1013.7
20260502204534 10 323 16.1 20.9 0.00 0.00 0.00 94 1013.9
20260502204035 10 320 17.7 20.9 0.00 0.00 0.00 94 1013.9
20260502203533 10 323 16.1 19.3 0.00 0.00 0.00 94 1014.0
20260502203032 10 315 16.1 17.7 0.00 0.00 0.00 94 1014.1
20260502202533 10 319 14.5 19.3 0.00 0.00 0.00 94 1014.0
20260502202032 10 327 16.1 20.9 0.00 0.00 0.00 94 1014.1
20260502201539 10 324 16.1 20.9 0.00 0.00 0.00 94 1014.1
20260502201033 10 321 17.7 20.9 0.00 0.00 0.00 94 1014.1
20260502200534 10 323 16.1 22.5 0.00 0.00 0.00 94 1014.1
20260502200031 10 314 17.7 22.5 0.00 0.00 0.00 94 1014.2
20260502195530 10 324 17.7 20.9 0.00 0.00 0.00 93 1014.3
20260502195029 10 327 17.7 20.9 0.00 0.00 0.00 93 1014.3
20260502194529 10 328 17.7 19.3 0.00 0.00 0.00 93 1014.5
20260502194029 10 325 16.1 22.5 0.00 0.00 0.00 93 1014.7
20260502193529 11 333 14.5 24.1 0.00 0.00 0.00 93 1014.7
20260502193029 10 323 22.5 24.1 0.00 0.00 0.00 93 1014.2
20260502192528 11 329 20.9 24.1 0.00 0.00 0.00 93 1014.4
20260502192027 10 325 19.3 22.5 0.00 0.00 0.00 92 1014.6
20260502191527 11 324 20.9 24.1 0.00 0.00 0.00 92 1014.6
20260502191028 10 334 19.3 25.7 0.00 0.00 0.00 92 1014.7
20260502190526 11 331 20.9 27.4 0.00 0.00 0.00 91 1014.7
20260502190031 11 343 22.5 30.6 0.00 0.00 0.00 91 1014.8
20260502185525 11 337 24.1 30.6 0.00 0.00 0.00 91 1014.8
20260502185025 11 336 22.5 29.0 0.00 0.00 0.00 91 1014.7
20260502184534 11 335 24.1 29.0 0.00 0.00 0.00 91 1014.8
20260502184025 10 321 24.1 29.0 0.00 0.00 0.00 91 1015.0
20260502183524 11 325 22.5 27.4 0.00 0.00 0.00 90 1015.1
20260502183030 11 333 22.5 30.6 0.00 0.00 0.00 90 1015.3
20260502182526 11 346 22.5 30.6 0.00 0.00 0.00 91 1015.3
20260502182022 11 329 20.9 30.6 0.00 0.00 0.00 91 1015.2